Satellite-Ground Cal/Val Site Overpasses Predictions

Prediction of Satellite NPP Overpassing Cal/Val Site: Antarctic Dome C

Ground Cal/Val Site Location: Latitude: -75.10, Longitude: 123.35; Satellite-Ground Site NADIR distance within 100 km.

Table of predicted overpasses for the next 14.0 days since TLE Epoch: 7/31/2016
Interval Starting Time Ending Time Minimum Distance Time Minimum Distance (km)
1 07/31/2016 15:08:20 07/31/2016 15:08:29 07/31/2016 15:08:24 94.80
2 08/01/2016 14:49:20 08/01/2016 14:49:49 08/01/2016 14:49:35 16.75
3 08/03/2016 07:32:08 08/03/2016 07:32:38 08/03/2016 07:32:23 1.00
4 08/06/2016 14:55:35 08/06/2016 14:56:03 08/06/2016 14:55:49 19.80
5 08/07/2016 14:36:52 08/07/2016 14:37:06 08/07/2016 14:36:59 87.16
6 08/08/2016 07:38:24 08/08/2016 07:38:51 08/08/2016 07:38:37 35.77
7 08/09/2016 07:19:37 08/09/2016 07:19:56 08/09/2016 07:19:47 74.46
8 08/11/2016 15:01:50 08/11/2016 15:02:14 08/11/2016 15:02:02 56.71
9 08/12/2016 14:43:00 08/12/2016 14:43:25 08/12/2016 14:43:13 52.46


NCC Satellite Cal/Val Overpasses Prediction Service
